Regional Weather Roundup
Issued by NWS Jackson, KY

Home | Current Version | Previous Version | Graphics & Text | Print | Product List | Glossary On
Versions: 1 2 3 4 5 6 7 8 9 10 11 12 13 14 15 16 17 18 19 20 21 22 23 24 25 26 27 28 29 30 31 32 33 34 35 36 37 38 39 40 41 42 43 44 45 46 47 48 49 50
077
ASUS43 KJKL 270610
RWRJKL

EAST KENTUCKY HOURLY WEATHER ROUNDUP
NATIONAL WEATHER SERVICE JACKSON KY
200 AM EDT MON MAR 27 2017

NOTE: "FAIR" INDICATES FEW OR NO CLOUDS BELOW 12,000 FEET WITH
NO SIGNIFICANT WEATHER AND/OR OBSTRUCTIONS TO VISIBILITY.

* THESE REPORTS ARE NOT UNDER NWS QUALITY CONTROL AND MAY NOT
  REPORT WEATHER SUCH AS PRECIPITATION AND FOG.

KYZ079-080-083-085-087-088-110-112-115-119-120-270700
...EASTERN KENTUCKY...

CITY           SKY/WX    TMP DP  RH WIND       PRES   REMARKS
JACKSON        CLOUDY    59  54  83 VRB3      30.01S
6HR MIN TEMP:  58; 6HR MAX TEMP:  60; 6HR PCP:  0.01;

LONDON         CLEAR     59  53  80 S3        30.01F
6HR MIN TEMP:  59; 6HR MAX TEMP:  62; 6HR PCP: TRACE;

SOMERSET*      PTCLDY    59  50  72 CALM      30.01F
MONTICELLO*    PTCLDY    60  52  74 W13       30.01F
6HR MIN TEMP:  60; 6HR MAX TEMP:  65;

WILLIAMSBURG*  CLEAR     59  54  82 SW3       30.01F
MIDDLESBORO*   CLOUDY    50  50 100 CALM      30.03F
6HR MIN TEMP:  50; 6HR MAX TEMP:  68;

HARLAN APT*    PTCLDY    61  48  63 CALM      30.03F
PIKE CO APT*     N/A     58  58 100 SE3       30.02S
BIG SANDY APT* CLOUDY    60  56  88 S5        30.01F
6HR MIN TEMP:  59; 6HR MAX TEMP:  61;

MOREHEAD APT*  CLOUDY    57  55  94 CALM      30.01F
ASHLAND*       CLOUDY    54  54 100 CALM      29.97F VSB 3/4
$$

KYZ035-036-041-042-044-050-067-078-099-270700
...CENTRAL KENTUCKY...

CITY           SKY/WX    TMP DP  RH WIND       PRES   REMARKS
MT STERLING*   CLOUDY    57  55  94 NW3       30.01F
FLEMING/MASON* CLOUDY    55  53  95 W5        30.00S
DANVILLE*      CLOUDY    59  54  82 CALM      30.01F
LEXINGTON      MOCLDY    57  53  86 CALM      29.99F
6HR MIN TEMP:  57; 6HR MAX TEMP:  62; 6HR PCP: TRACE;

FRANKFORT      CLOUDY    53  49  86 CALM      29.97F
6HR MIN TEMP:  52; 6HR MAX TEMP:  64;

LOUISVILLE     CLOUDY    56  48  74 CALM      29.98S
6HR MIN TEMP:  55; 6HR MAX TEMP:  65; 6HR PCP: TRACE;

LEBANON*         N/A     57  54  88 CALM      30.00F
GLASGOW*       PTCLDY    54  54 100 CALM      29.99S
BOWLING GREEN  PTCLDY    55  52  89 CALM      29.99S
6HR MIN TEMP:  54; 6HR MAX TEMP:  70;

$$

KYZ091>093-OHZ055-061-077-WVZ005-015-034-035-042-270700
...SOUTHERN OHIO/WEST VIRGINIA...

CITY           SKY/WX    TMP DP  RH WIND       PRES   REMARKS
COVINGTON      CLOUDY    50  50 100 S5        29.96F
COLUMBUS       PTCLDY    55  53  93 SW5       29.94F
DAYTON         PTCLDY    50  49  96 SW6       29.94F
WILMINGTON     CLOUDY    51  50  96 SW6       29.96S
HUNTINGTON     CLOUDY    59  55  87 SW5       29.98S
CHARLESTON     CLOUDY    59  55  87 CALM      29.99F
PINEVILLE*     CLOUDY    55  52  91 MISG      30.10F FOG
BECKLEY        LGT RAIN  57  52  83 S13       30.07S
LOGAN CO APT*  MOCLDY    59  55  88 CALM      30.02F
$$

VAZ002-007-008-TNZ017-027-036-066-071-270700
...SOUTHWEST VIRGINIA/EAST TENNESSEE...

CITY           SKY/WX    TMP DP  RH WIND       PRES   REMARKS
WISE*          PTCLDY    57  50  77 SW5       30.09S
JONESVILLE*      N/A     54  54 100 CALM      30.06F
ABINGDON*      MOCLDY    59  53  79 CALM      30.08S
BRISTOL        CLOUDY    61  54  77 NW5       30.06S
MORRISTOWN*    CLOUDY    57  55  94 CALM      30.04F
SEVIERVILLE*   PTCLDY    55  52  88 CALM      30.04S
KNOXVILLE      PTCLDY    60  52  74 S5        30.03F
LAFOLLETTE*    CLEAR     61  50  67 CALM      30.05F
OAK RIDGE      CLEAR     56  51  84 CALM      30.04F
CROSSVILLE     CLEAR     55  50  83 CALM      30.05F
NASHVILLE      CLOUDY    60  54  80 S6        29.98F
$$

...KEY TO REMARKS...
VSB - VISIBILITY IN MILES
WCI - WIND CHILL INDEX
HX  - HEAT INDEX

$$




USA.gov is the U.S. government's official web portal to all federal, state and local government web resources and services.